Overview Statistics Trail Chart Weather Telemetry Raw packets
 

This is the latest recevied weather packets stored in our database for station/object HP3ICC-22. If no packets are shown the sender has not sent any weather packets the latest 10 day(s).

<< 26 27 28 29 30 31 32 >>
Time Temp. Humidity Pressure Rain* Wind** Luminosity Snow
1777322332 13.33° C 74% 1012 hPa 0 mm - - -
1777322271 13.33° C 74% 1012 hPa 0 mm - - -
1777321131 13.89° C 74% 1012 hPa 0 mm - - -
1777321071 13.89° C 74% 1012 hPa 0 mm - - -
1777319931 14.44° C 66% 1012 hPa 0 mm - - -
1777319870 14.44° C 66% 1012 hPa 0 mm - - -
1777318730 13.89° C 69% 1012 hPa 0 mm - - -
1777318670 13.89° C 69% 1012 hPa 0 mm - - -
1777317530 15° C 65% 1013 hPa 0 mm - - -
1777317469 15° C 65% 1013 hPa 0 mm - - -
1777316329 14.44° C 66% 1013 hPa 0 mm - - -
1777316269 14.44° C 66% 1013 hPa 0 mm - - -
1777315129 15.56° C 64% 1013 hPa 0 mm - - -
1777315068 15.56° C 64% 1013 hPa 0 mm - - -
1777313928 15.56° C 61% 1013 hPa 0 mm - - -
1777313868 15.56° C 61% 1013 hPa 0 mm - - -
1777312727 15.56° C 61% 1013 hPa 0 mm - - -
1777312667 15.56° C 61% 1013 hPa 0 mm - - -
1777311527 15° C 61% 1014 hPa 0 mm - - -
1777311467 15° C 61% 1014 hPa 0 mm - - -
1777310326 15° C 61% 1014 hPa 0 mm - - -
1777310266 15° C 61% 1014 hPa 0 mm - - -
1777309126 15° C 61% 1014 hPa 0 mm - - -
1777309065 15° C 61% 1014 hPa 0 mm - - -
1777307925 15° C 62% 1014 hPa 0 mm - - -

* Rain latest hour (hover to see other rain measurements)
** Current wind speed in m/s (hover to see current wind gust speed)